Location: Unspecified
(0.0000°N, 0.0000°E)
Time: 20:10:44
(UTC+00:00)

Vanguard 2 - All Passes

Search period start: 01 March 2017 00:00
Search period end: 11 March 2017 00:00
Orbit: 553 x 2941 km, 32.9° (Epoch: 28 February)

Date Brightness Start Highest point End Pass type
(mag) Time Alt. Az. Time Alt. Az. Time Alt. Az.
01 Mar - 05:49:02 10° SW 05:54:17 61° SE 06:02:53 10° ENE visible
01 Mar - 07:57:32 10° W 08:04:19 35° NNW 08:14:58 10° NE daylight
01 Mar - 10:11:02 10° NW 10:18:01 17° N 10:26:43 10° NNE daylight
01 Mar - 12:27:08 10° NNW 12:35:26 15° N 12:44:21 10° NE daylight
01 Mar - 14:39:10 10° NNW 14:53:05 27° NNE 15:05:30 10° ENE daylight
01 Mar - 16:50:48 10° NW 17:07:48 59° NNE 17:19:30 10° ESE daylight
01 Mar - 19:04:56 10° WNW 19:19:18 55° SW 19:28:09 10° SE visible
01 Mar - 21:26:03 10° WSW 21:28:56 12° SW 21:31:29 10° SSW visible
02 Mar - 04:02:25 10° SSE 04:04:23 12° SE 04:06:37 10° ESE visible
02 Mar - 06:07:05 10° WSW 06:12:29 84° NW 06:21:31 10° NE daylight
02 Mar - 08:16:50 10° WNW 08:23:19 26° NNW 08:32:48 10° NNE daylight
02 Mar - 10:31:47 10° NW 10:37:53 14° N 10:45:03 10° NNE daylight
02 Mar - 12:46:12 10° NNW 12:55:39 17° NNE 13:05:39 10° NE daylight
02 Mar - 14:57:13 10° NNW 15:12:31 34° NNE 15:25:39 10° E daylight
02 Mar - 17:09:06 10° NW 17:26:29 75° NE 17:38:07 10° ESE daylight
02 Mar - 19:24:26 10° WNW 19:37:27 40° SW 19:45:52 10° SSE visible
03 Mar - 04:18:53 10° SSW 04:22:28 23° SE 04:27:06 10° E visible
03 Mar - 06:25:27 10° WSW 06:30:54 53° NNW 06:39:49 10° NE daylight
03 Mar - 08:36:38 10° WNW 08:42:32 19° NNW 08:50:29 10° NNE daylight
03 Mar - 10:52:29 10° NNW 10:57:55 13° N 11:04:05 10° NNE daylight
03 Mar - 13:04:40 10° NNW 13:15:40 20° NNE 13:27:06 10° ENE daylight
03 Mar - 15:15:14 10° NW 15:31:43 42° NNE 15:45:19 10° E daylight
03 Mar - 17:27:38 10° NW 17:44:59 87° SW 17:56:27 10° SE daylight
03 Mar - 19:44:30 10° W 19:55:40 29° SW 20:03:20 10° SSE visible
04 Mar - 04:36:18 10° SSW 04:40:29 41° SE 04:46:27 10° ENE visible
04 Mar - 06:44:12 10° W 06:49:32 35° NNW 06:57:48 10° NE daylight
04 Mar - 08:57:04 10° NW 09:01:58 15° N 09:08:00 10° NNE daylight
04 Mar - 11:12:26 10° NNW 11:18:05 13° N 11:24:23 10° NNE daylight
04 Mar - 13:22:48 10° NNW 13:35:26 24° NNE 13:48:16 10° ENE daylight
04 Mar - 15:33:19 10° NW 15:50:40 53° NNE 16:04:33 10° ESE daylight
04 Mar - 17:46:27 10° WNW 18:03:22 68° SW 18:14:33 10° SE daylight
04 Mar - 20:05:19 10° W 20:14:00 20° SW 20:20:28 10° S visible
05 Mar - 04:54:10 10° SW 04:58:35 76° SE 05:05:14 10° ENE visible
05 Mar - 07:03:24 10° WNW 07:08:23 24° NNW 07:15:30 10° NNE daylight
05 Mar - 09:18:19 10° NNW 09:21:35 12° N 09:25:18 10° NNE daylight
05 Mar - 11:31:23 10° NNW 11:38:12 14° NNE 11:45:51 10° NE daylight
05 Mar - 13:40:46 10° NNW 13:54:54 30° NNE 14:08:55 10° E daylight
05 Mar - 15:51:29 10° NW 16:09:27 67° NE 16:23:25 10° ESE daylight
05 Mar - 18:05:38 10° WNW 18:21:40 52° SW 18:32:28 10° SE daylight
05 Mar - 20:27:15 10° WSW 20:32:34 14° SW 20:36:59 10° S visible
06 Mar - 03:06:47 10° S 03:08:47 13° SE 03:10:55 10° ESE visible
06 Mar - 05:12:23 10° WSW 05:16:52 61° NNW 05:23:35 10° NE visible
06 Mar - 07:23:12 10° NW 07:27:25 16° NNW 07:32:51 10° NNE daylight
06 Mar - 11:49:38 10° NNW 11:58:11 17° NNE 12:07:47 10° NE daylight
06 Mar - 13:58:42 10° NNW 14:14:07 38° NNE 14:29:01 10° E daylight
06 Mar - 16:09:51 10° NW 16:28:04 84° NE 16:41:58 10° ESE daylight
06 Mar - 18:25:18 10° W 18:39:58 39° SW 18:50:09 10° SSE visible
07 Mar - 03:23:35 10° SSW 03:26:56 25° SE 03:30:52 10° E visible
07 Mar - 05:31:01 10° W 05:35:19 35° NNW 05:41:34 10° NE visible
07 Mar - 07:44:08 10° NNW 07:46:38 12° NNW 07:49:27 10° N daylight
07 Mar - 12:07:34 10° NNW 12:17:54 20° NNE 12:29:34 10° ENE daylight
07 Mar - 14:16:38 10° NW 14:33:05 48° NNE 14:48:37 10° ESE daylight
07 Mar - 16:28:26 10° WNW 16:46:34 79° SW 17:00:14 10° SE daylight
07 Mar - 18:45:32 10° W 18:58:23 29° SW 19:07:41 10° SSE visible
08 Mar - 03:41:11 10° SW 03:45:03 51° SE 03:49:52 10° ENE visible
08 Mar - 05:50:09 10° WNW 05:54:00 22° NNW 05:59:10 10° NNE daylight
08 Mar - 10:19:42 10° N 10:21:21 10° NNE 10:23:03 10° NNE daylight
08 Mar - 12:25:22 10° NNW 12:37:21 26° NNE 12:50:50 10° ENE daylight
08 Mar - 14:34:41 10° NW 14:51:52 60° NE 15:07:47 10° ESE daylight
08 Mar - 16:47:20 10° WNW 17:05:01 63° SW 17:18:19 10° SE daylight
08 Mar - 19:06:30 10° WSW 19:16:59 22° SW 19:25:00 10° S visible
09 Mar - 03:59:15 10° WSW 04:03:14 78° NW 04:08:19 10° NE visible
09 Mar - 06:10:06 10° NW 06:12:51 14° NNW 06:16:07 10° N daylight
09 Mar - 10:36:25 10° N 10:41:13 12° NNE 10:46:37 10° NE daylight
09 Mar - 12:43:08 10° NNW 12:56:31 33° NNE 13:11:29 10° E daylight
09 Mar - 14:52:51 10° NW 15:10:31 75° NE 15:26:35 10° ESE daylight
09 Mar - 17:06:37 10° WNW 17:23:27 49° SW 17:36:13 10° SE daylight
09 Mar - 19:28:21 10° WSW 19:35:50 16° SSW 19:41:57 10° S visible
10 Mar - 02:10:34 10° S 02:13:20 17° SSE 02:16:03 10° ESE night (unlit)
10 Mar - 04:17:45 10° W 04:21:32 38° NNW 04:26:22 10° NE visible
10 Mar - 10:53:42 10° N 11:00:53 16° NNE 11:09:19 10° NE daylight
10 Mar - 13:00:56 10° NNW 13:15:26 42° NNE 13:31:33 10° E daylight
10 Mar - 15:11:14 10° NW 15:29:05 89° SW 15:45:05 10° SE daylight
10 Mar - 17:26:23 10° W 17:41:58 38° SW 17:53:58 10° SSE daylight
10 Mar - 19:51:50 10° SW 19:54:59 11° SSW 19:57:51 10° SSW visible
